Location: Catstown
(52.4386°N, 7.2633°W)
Time: 02:08:00
(UTC+00:00)

Cosmos 1626 - Pass Details

Date: 18 September 2020
Orbit: 490 x 495 km, 82.5° (Epoch: 30 October)

Event Time Altitude Azimuth Distance (km) Brightness Sun altitude
Rises 21:46:53 0° 340° (NNW) 2,593 6.8 -27.0°
Reaches altitude 10° 21:49:11 10° 330° (NNW) 1,703 5.7 -27.2°
Enters shadow 21:52:00 28° 282° (WNW) 960 4.0 -27.5°
